[[[{"header":{"parameterUnit":"kt","parameterCategory":2,"dx":1,"dy":1,"la1":30.253999710083008,"la2":30.299108505249023,"lo1":-89.0895004272461,"lo2":-89.04439544677734,"nx":28,"ny":28,"refTime":"2022-09-26T21:00:00:Z","depth":"0","parameterNumber":2,"parameterNumberName":"U-component_of_CURRENTS"},"data":[-0.1228,-0.1135,-0.1092,-0.0955,-0.0897,-0.0743,-0.0666,-0.0611,-0.0664,-0.0956,-0.1372,-0.1672,-0.2167,-0.2872,-0.2998,-0.2723,-0.2649,-0.2544,-0.2398,-0.2434,-0.2383,-0.2334,-0.2456,-0.2828,-0.283,-0.2744,-0.2746,-0.2748,-0.1297,-0.1269,-0.1182,-0.1041,-0.0963,-0.0916,-0.079,-0.0707,-0.0669,-0.0816,-0.0863,-0.1364,-0.1484,-0.1553,-0.1746,-0.1724,-0.1542,-0.1726,-0.1896,-0.1796,-0.1436,-0.1527,-0.1708,-0.1707,-0.1707,-0.1707,-0.1706,-0.1706,-0.143,-0.1365,-0.124,-0.1121,-0.1041,-0.0935,-0.084,-0.0779,-0.0726,-0.0739,-0.0779,-0.0913,-0.1044,-0.0869,-0.0737,-0.0894,-0.0711,-0.1034,-0.1146,-0.1091,-0.111,-0.0656,-0.0602,-0.06,-0.0598,-0.0596,-0.0595,0,-0.1476,-0.1444,-0.1307,-0.1175,-0.1076,-0.0957,-0.0843,-0.0804,-0.0737,-0.074,-0.0754,-0.0755,-0.0663,-0.0701,-0.0536,-0.0463,-0.0664,-0.0487,-0.0759,-0.1269,-0.1303,-0.1251,-0.0793,-0.0756,-0.0754,-0.0753,-0.0752,-0.0752,-0.1586,-0.1489,-0.1283,-0.1213,-0.1109,-0.0976,-0.0908,-0.0821,-0.0778,-0.0765,-0.0745,-0.0697,-0.0698,-0.0539,-0.0482,-0.037,-0.049,-0.046,-0.0541,-0.083,-0.0956,-0.0946,-0.0907,-0.0735,-0.0737,-0.0738,-0.074,0,-0.1622,-0.1523,-0.1339,-0.1133,-0.1084,-0.0995,-0.088,-0.0828,-0.0803,-0.0771,-0.0758,-0.0768,-0.0711,-0.0648,-0.0549,-0.0532,-0.0544,-0.0403,-0.0615,-0.0621,-0.081,-0.0935,-0.0928,-0.0884,-0.031,-0.0308,-0.0307,0,-0.1636,-0.1513,-0.1352,-0.1231,-0.1108,-0.1015,-0.0931,-0.0902,-0.085,-0.0822,-0.0833,-0.0818,-0.0774,-0.0717,-0.0678,-0.0586,-0.0585,-0.0542,-0.0522,-0.0703,-0.0715,-0.0936,-0.107,-0.056,-0.056,-0.0561,-0.0562,0,-0.1679,-0.1501,-0.138,-0.1301,-0.1119,-0.1073,-0.1015,-0.098,-0.0946,-0.0904,-0.089,-0.0841,-0.0802,-0.0755,-0.0712,-0.0745,-0.0612,-0.0641,-0.0564,-0.0562,-0.0694,-0.0705,-0.0929,-0.0563,-0.0563,-0.0563,-0.0563,0,-0.1677,-0.1565,-0.1427,-0.1245,-0.1211,-0.1144,-0.1062,-0.1014,-0.0977,-0.0966,-0.0938,-0.0919,-0.0859,-0.0874,-0.0789,-0.0829,-0.0785,-0.0748,-0.0744,-0.0695,-0.0699,-0.081,-0.0773,-0.105,-0.07,-0.0701,-0.0702,0,-0.1669,-0.1557,-0.152,-0.1375,-0.1276,-0.1228,-0.1188,-0.1134,-0.1114,-0.1058,-0.1025,-0.0958,-0.0979,-0.0937,-0.0909,-0.0848,-0.0808,-0.0861,-0.0761,-0.0758,-0.0742,-0.0673,-0.0864,-0.0789,-0.0719,-0.0717,-0.0716,0,-0.1684,-0.1561,-0.1549,-0.1448,-0.1367,-0.1327,-0.1292,-0.1225,-0.118,-0.1137,-0.1072,-0.1009,-0.0997,-0.0959,-0.0927,-0.0889,-0.0834,-0.089,-0.0888,-0.0869,-0.074,-0.0702,-0.0687,-0.083,-0.0828,-0.0827,-0.0729,0,-0.1571,-0.1514,-0.1526,-0.1452,-0.1423,-0.1374,-0.1299,-0.1284,-0.1247,-0.1197,-0.1136,-0.109,-0.1021,-0.0996,-0.0979,-0.0911,-0.0912,-0.0909,-0.0921,-0.0886,-0.0847,-0.0837,-0.0955,-0.0955,-0.0955,-0.0955,0,0,-0.1541,-0.1516,-0.1528,-0.1488,-0.1423,-0.1391,-0.1331,-0.1316,-0.1244,-0.1221,-0.1218,-0.1106,-0.1075,-0.0999,-0.0977,-0.0967,-0.0946,-0.0975,-0.0902,-0.0897,-0.0891,-0.0853,-0.0843,-0.0955,-0.0955,-0.0955,-0.0955,0,-0.1508,-0.151,-0.1523,-0.1474,-0.141,-0.1372,-0.1366,-0.13,-0.1285,-0.1233,-0.1183,-0.1141,-0.1094,-0.1039,-0.1007,-0.0973,-0.0956,-0.0956,-0.095,-0.0903,-0.0898,-0.0893,-0.0854,-0.0846,-0.0955,-0.0955,-0.0955,0,-0.1441,-0.1418,-0.1422,-0.1389,-0.1368,-0.1315,-0.1299,-0.1284,-0.1234,-0.1215,-0.1175,-0.1145,-0.1095,-0.1053,-0.1036,-0.1041,-0.0968,-0.0998,-0.0997,-0.0996,-0.0948,-0.0941,-0.0935,-0.1013,-0.1014,-0.1014,0,0,-0.1409,-0.1432,-0.1346,-0.1367,-0.1349,-0.1297,-0.1287,-0.1248,-0.122,-0.1222,-0.119,-0.1145,-0.1102,-0.1089,-0.1056,-0.1039,-0.1016,-0.1008,-0.1005,-0.1003,-0.1001,-0.0952,-0.0946,-0.1016,-0.1016,-0.1016,0,0,-0.1393,-0.133,-0.1291,-0.1304,-0.1267,-0.1219,-0.124,-0.1205,-0.1207,-0.1195,-0.1159,-0.1152,-0.112,-0.1104,-0.113,-0.1047,-0.1053,-0.1049,-0.1068,-0.1065,-0.1062,-0.1066,-0.1107,0,0,0,0,0,-0.1298,-0.1331,-0.1296,-0.1283,-0.1242,-0.1225,-0.1222,-0.119,-0.1171,-0.1205,-0.1166,-0.1155,-0.1092,-0.1115,-0.1113,-0.1085,-0.1038,-0.1034,-0.103,-0.1049,-0.1046,-0.1042,0,0,0,0,0,0,-0.1292,-0.1282,-0.1293,-0.1242,-0.1228,-0.1226,-0.1182,-0.1177,-0.1169,-0.1169,-0.116,-0.1154,-0.1129,-0.1115,-0.1113,-0.1087,-0.1107,-0.1036,-0.1033,-0.103,-0.1048,-0.1045,-0.1042,0,0,0,0,0,-0.1288,-0.1279,-0.1224,-0.1242,-0.1231,-0.1177,-0.1183,-0.1178,-0.1201,-0.1139,-0.1136,-0.1172,-0.113,-0.1127,-0.1114,-0.1088,-0.1108,-0.1108,-0.1034,-0.1031,-0.1029,-0.1047,0,0,0,0,0,0,-0.1284,-0.1307,-0.1221,-0.1215,-0.123,-0.118,-0.1175,-0.118,-0.1174,-0.1167,-0.1147,-0.1146,-0.1131,-0.1128,-0.1126,-0.1087,-0.1109,-0.1109,-0.1108,-0.1032,-0.103,-0.1028,0,0,0,0,0,0,-0.1308,-0.1303,-0.1219,-0.1207,-0.12,-0.1182,-0.1178,-0.1173,-0.1175,-0.1188,-0.1183,-0.1146,-0.1116,-0.113,-0.1128,-0.1124,-0.111,-0.1109,-0.1109,-0.1109,-0.103,-0.1029,0,0,0,0,0,0,-0.1305,-0.1301,-0.121,-0.1205,-0.12,-0.1147,-0.1179,-0.1142,-0.1155,-0.1191,-0.1153,-0.1152,-0.1116,-0.1116,-0.1129,-0.1126,-0.1124,-0.111,-0.1109,-0.1109,-0.1109,0,0,0,0,0,0,0,-0.1302,-0.1345,-0.1231,-0.1204,-0.1199,-0.1154,-0.1154,-0.1155,-0.1155,-0.1154,-0.1153,-0.1152,-0.1113,-0.1113,-0.1112,-0.1128,0,0,-0.111,-0.111,0,0,0,0,0,0,0,0,-0.1346,-0.1345,-0.1231,-0.1228,-0.1226,-0.1154,-0.1154,-0.1155,-0.1155,-0.1154,-0.1153,-0.1153,-0.1113,-0.1113,-0.1112,0,0,0,0,0,0,0,0,0,0,0,0,0,0,0,-0.1231,-0.1228,0,-0.1154,-0.1154,-0.1155,-0.1155,-0.1154,-0.1154,-0.1153,-0.1113,-0.1112,-0.1112,0,0,0,0,0,0,0,0,0,0,0,0,0,0,0,0,0,0,0,0,0,0,0,0,0,0,0,0,0,0,0,0,0,0,0,0,0,0,0,0,0,0,0,0,0,0,0,0,0,0,0,0,0,0,0,0,0,0,0,0,0,0,0,0,0,0,0,0,0]}],[{"header":{"parameterUnit":"kt","parameterCategory":2,"dx":1,"dy":1,"la1":30.253999710083008,"la2":30.299108505249023,"lo1":-89.0895004272461,"lo2":-89.04439544677734,"nx":28,"ny":28,"refTime":"2022-09-26T21:00:00:Z","depth":"0","parameterNumber":3,"parameterNumberName":"V-component_of_CURRENTS"},"data":[-0.292,-0.2839,-0.2781,-0.2649,-0.2561,-0.2392,-0.2323,-0.2237,-0.2152,-0.1893,-0.1607,-0.1401,-0.0503,0.0972,0.1628,0.1591,0.1827,0.1909,0.1905,0.1306,0.122,0.1139,0.1235,0.1962,0.1964,0.282,0.2829,0.2835,-0.2917,-0.2854,-0.2792,-0.2641,-0.2541,-0.2453,-0.2336,-0.227,-0.2184,-0.2079,-0.1916,-0.1289,-0.0674,-0.0226,0.0395,0.0604,0.0637,0.0685,0.0964,0.0957,0.0068,0.0135,0.064,0.064,0.0639,0.0639,0.0639,0.0638,-0.2886,-0.2845,-0.2724,-0.2638,-0.2541,-0.2414,-0.235,-0.2266,-0.2194,-0.2139,-0.1966,-0.1748,-0.1197,-0.0826,-0.0699,-0.0323,-0.0442,-0.0312,-0.0197,-0.0064,0.0096,-0.0918,-0.0611,-0.0614,-0.0616,-0.0618,-0.062,0,-0.2794,-0.2766,-0.2679,-0.2566,-0.249,-0.2396,-0.2307,-0.2299,-0.221,-0.2187,-0.2061,-0.1923,-0.1621,-0.1298,-0.1106,-0.1075,-0.0928,-0.1158,-0.0884,-0.0494,-0.0271,-0.0185,-0.1316,-0.1038,-0.1043,-0.1047,-0.105,-0.1052,-0.275,-0.2696,-0.2554,-0.2512,-0.2455,-0.2376,-0.2315,-0.224,-0.2216,-0.2161,-0.2146,-0.2011,-0.1873,-0.1674,-0.1557,-0.1422,-0.1289,-0.1278,-0.1362,-0.1086,-0.0944,-0.0785,-0.0724,-0.1108,-0.1101,-0.1095,-0.109,0,-0.2747,-0.265,-0.2539,-0.2404,-0.2365,-0.2326,-0.2251,-0.2215,-0.2203,-0.2187,-0.2178,-0.2132,-0.2003,-0.1975,-0.1882,-0.1902,-0.1582,-0.1764,-0.1601,-0.1558,-0.1201,-0.1088,-0.0522,-0.0408,-0.1604,-0.1599,-0.1596,0,-0.2743,-0.2649,-0.2534,-0.245,-0.2377,-0.2281,-0.2244,-0.2224,-0.2197,-0.2198,-0.2207,-0.2173,-0.2176,-0.2119,-0.2118,-0.2014,-0.2034,-0.2014,-0.1989,-0.1849,-0.183,-0.156,-0.1439,-0.2104,-0.2105,-0.2106,-0.2107,0,-0.2824,-0.2637,-0.2547,-0.247,-0.2337,-0.2312,-0.2281,-0.2281,-0.2303,-0.2267,-0.2272,-0.2233,-0.2222,-0.2189,-0.2199,-0.2263,-0.2124,-0.2199,-0.2062,-0.2055,-0.1872,-0.1852,-0.1397,-0.2108,-0.2108,-0.2109,-0.2109,0,-0.2824,-0.2721,-0.2594,-0.2433,-0.2378,-0.2359,-0.2296,-0.2314,-0.2331,-0.2353,-0.2343,-0.2367,-0.2351,-0.2395,-0.2344,-0.2392,-0.2365,-0.237,-0.2364,-0.2262,-0.2283,-0.2005,-0.1824,-0.1536,-0.232,-0.2322,-0.2323,0,-0.289,-0.2741,-0.2674,-0.2548,-0.2426,-0.2369,-0.2401,-0.24,-0.2438,-0.2451,-0.2478,-0.2496,-0.2558,-0.2532,-0.2518,-0.251,-0.2465,-0.2541,-0.2433,-0.2429,-0.2335,-0.2206,-0.2016,-0.1869,-0.2348,-0.2345,-0.2343,0,-0.2923,-0.2734,-0.2702,-0.2612,-0.2481,-0.2417,-0.2456,-0.2424,-0.241,-0.2507,-0.248,-0.2587,-0.2561,-0.259,-0.2606,-0.2592,-0.2506,-0.2614,-0.2612,-0.2565,-0.2372,-0.2256,-0.2229,-0.2501,-0.2499,-0.2496,-0.2363,0,-0.2924,-0.2782,-0.2727,-0.2597,-0.2535,-0.2433,-0.2386,-0.2426,-0.2452,-0.2463,-0.2515,-0.2609,-0.2634,-0.2651,-0.2712,-0.2652,-0.2656,-0.2667,-0.2701,-0.2644,-0.2595,-0.2579,-0.2774,-0.2775,-0.2776,-0.2777,0,0,-0.2966,-0.2809,-0.2699,-0.2609,-0.2497,-0.2418,-0.234,-0.2377,-0.2399,-0.242,-0.2478,-0.2578,-0.267,-0.2691,-0.2698,-0.2749,-0.2722,-0.2783,-0.2681,-0.267,-0.266,-0.261,-0.2594,-0.2778,-0.2778,-0.2779,-0.2779,0,-0.2955,-0.2785,-0.2721,-0.2622,-0.2447,-0.2402,-0.237,-0.2279,-0.232,-0.2419,-0.2449,-0.2501,-0.2689,-0.2716,-0.275,-0.2764,-0.2768,-0.2769,-0.2751,-0.2689,-0.2678,-0.2667,-0.2616,-0.2601,-0.2781,-0.2781,-0.2781,0,-0.2951,-0.2805,-0.2733,-0.2526,-0.2433,-0.2362,-0.2299,-0.2211,-0.2225,-0.2323,-0.2464,-0.2518,-0.2608,-0.2716,-0.2771,-0.2793,-0.2811,-0.2859,-0.2854,-0.2853,-0.2791,-0.2778,-0.2766,-0.2916,-0.2916,-0.2916,0,0,-0.2952,-0.2851,-0.2624,-0.2496,-0.2421,-0.231,-0.2254,-0.2223,-0.2245,-0.229,-0.2411,-0.2513,-0.2587,-0.2675,-0.2772,-0.2886,-0.2865,-0.2874,-0.2868,-0.2863,-0.2859,-0.2796,-0.2783,-0.2918,-0.2918,-0.2918,0,0,-0.2966,-0.2709,-0.2629,-0.245,-0.2349,-0.2225,-0.2191,-0.2156,-0.2269,-0.229,-0.2408,-0.2456,-0.2579,-0.2654,-0.2661,-0.276,-0.2783,-0.2787,-0.2738,-0.2732,-0.2725,-0.2697,-0.2717,0,0,0,0,0,-0.2814,-0.272,-0.2646,-0.2582,-0.2331,-0.2225,-0.2212,-0.2164,-0.2146,-0.2187,-0.2309,-0.2358,-0.2669,-0.2681,-0.2722,-0.271,-0.2937,-0.2934,-0.2931,-0.2891,-0.2883,-0.2876,0,0,0,0,0,0,-0.2787,-0.2713,-0.2647,-0.249,-0.2428,-0.2229,-0.2215,-0.2209,-0.2147,-0.2155,-0.2327,-0.2363,-0.2465,-0.2667,-0.2702,-0.2687,-0.2705,-0.2936,-0.2933,-0.293,-0.2888,-0.2881,-0.2876,0,0,0,0,0,-0.2765,-0.2704,-0.2294,-0.2498,-0.2445,-0.2326,-0.2222,-0.2216,-0.2233,-0.2302,-0.2334,-0.2186,-0.2461,-0.2502,-0.2688,-0.2668,-0.2682,-0.2694,-0.2934,-0.2932,-0.293,-0.2885,0,0,0,0,0,0,-0.2748,-0.2805,-0.2286,-0.2269,-0.2507,-0.2346,-0.2318,-0.2222,-0.2397,-0.2406,-0.2169,-0.2174,-0.2459,-0.2491,-0.2522,-0.2654,-0.2662,-0.2675,-0.2683,-0.2932,-0.2931,-0.2929,0,0,0,0,0,0,-0.2831,-0.2793,-0.228,-0.2294,-0.2282,-0.2364,-0.2337,-0.2461,-0.2411,-0.2273,-0.2268,-0.2171,-0.2465,-0.2483,-0.2507,-0.27,-0.2648,-0.266,-0.2669,-0.2674,-0.2931,-0.2929,0,0,0,0,0,0,-0.2816,-0.2783,-0.2303,-0.2293,-0.2283,-0.214,-0.2494,-0.2306,-0.2199,-0.228,-0.2203,-0.2204,-0.246,-0.2483,-0.2497,-0.2678,-0.2695,-0.2648,-0.2657,-0.2663,-0.2666,0,0,0,0,0,0,0,-0.2803,-0.3016,-0.2319,-0.2292,-0.2284,-0.2104,-0.2106,-0.2108,-0.2199,-0.2201,-0.2202,-0.2204,-0.2578,-0.2591,-0.2605,-0.266,0,0,-0.2647,-0.2653,0,0,0,0,0,0,0,0,-0.303,-0.302,-0.2318,-0.2311,-0.2304,-0.2104,-0.2106,-0.2107,-0.22,-0.2201,-0.2202,-0.2203,-0.2581,-0.2592,-0.2603,0,0,0,0,0,0,0,0,0,0,0,0,0,0,0,-0.2317,-0.2311,0,-0.2104,-0.2106,-0.2107,-0.22,-0.2201,-0.2202,-0.2203,-0.2584,-0.2593,-0.2602,0,0,0,0,0,0,0,0,0,0,0,0,0,0,0,0,0,0,0,0,0,0,0,0,0,0,0,0,0,0,0,0,0,0,0,0,0,0,0,0,0,0,0,0,0,0,0,0,0,0,0,0,0,0,0,0,0,0,0,0,0,0,0,0,0,0,0,0,0]}]],[[{"header":{"parameterUnit":"kt","parameterCategory":2,"dx":1,"dy":1,"la1":30.253999710083008,"la2":30.299108505249023,"lo1":-89.0895004272461,"lo2":-89.04439544677734,"nx":28,"ny":28,"refTime":"2022-09-26T21:00:00:Z","depth":"2","parameterNumber":2,"parameterNumberName":"U-component_of_CURRENTS"},"data":[-0.0256,-0.022,-0.0211,-0.0052,-0.0014,0.0026,-0.0003,-0.0201,-0.0484,-0.1017,-0.1378,-0.1835,-0.1689,-0.1667,-0.1526,-0.1371,-0.112,-0.1293,-0.1039,-0.104,-0.1008,-0.0807,-0.0859,0,0,0,0,0,-0.0278,-0.0315,-0.0234,-0.0193,-0.008,-0.0094,-0.0095,-0.014,-0.0322,-0.074,-0.1054,-0.1303,-0.1488,-0.1349,-0.1219,-0.1107,-0.104,-0.0953,-0.0955,-0.0923,-0.0892,-0.0941,-0.122,-0.1219,-0.1218,-0.1217,0,0,-0.0399,-0.0367,-0.0355,-0.0277,-0.0213,-0.0185,-0.0136,-0.0179,-0.0241,-0.0465,-0.0616,-0.0908,-0.0981,-0.1074,-0.0955,-0.0751,-0.0705,-0.0642,-0.0628,-0.0609,-0.0648,-0.0684,-0.0848,-0.0846,-0.0844,-0.0842,-0.084,0,-0.0524,-0.0528,-0.0449,-0.0392,-0.0319,-0.0217,-0.0129,-0.0125,-0.0073,-0.0152,-0.0324,-0.0433,-0.054,-0.069,-0.0626,-0.0582,-0.0321,-0.0424,-0.0089,-0.046,-0.0495,-0.0487,-0.0465,-0.0615,-0.0611,-0.0608,-0.0605,-0.0604,-0.0719,-0.0642,-0.0538,-0.0493,-0.0395,-0.0252,-0.0171,-0.0072,-0.0029,-0.0057,-0.0087,-0.0126,-0.0262,-0.0247,-0.0255,-0.0222,-0.0085,-0.0332,-0.0324,-0.003,-0.0023,-0.0016,-0.0009,-0.056,-0.0566,-0.057,-0.0574,0,-0.0766,-0.0746,-0.0607,-0.044,-0.0393,-0.0278,-0.0132,-0.0055,0.0009,0.0024,0.0037,-0.0014,-0.004,0.0012,0.0055,0.0017,0.0061,0.0011,-0.0192,-0.0218,0.0004,0.0007,-0.0068,-0.0071,-0.0073,-0.0075,-0.0077,0,-0.08,-0.0714,-0.0606,-0.054,-0.0391,-0.028,-0.0137,-0.0044,0.0029,0.006,0.0105,0.004,0.0094,0.0081,0.0127,0.0073,0.0104,0.0086,0.0084,-0.0077,-0.0097,0.0204,0.0209,0.0164,0.0164,0.0164,0.0165,0,-0.0806,-0.0694,-0.06,-0.0557,-0.0367,-0.0278,-0.0172,-0.0027,0.0052,0.0124,0.0137,0.0128,0.0107,0.0116,0.0155,0.0165,0.0172,0.0213,0.0112,0.0107,-0.0054,-0.0072,0.0165,0.0165,0.0165,0.0165,0.0166,0,-0.0787,-0.0703,-0.0617,-0.0462,-0.0432,-0.034,-0.015,-0.0045,0.0059,0.0107,0.0088,0.0114,0.0158,0.0132,0.016,0.0153,0.0148,0.0211,0.021,0.0159,0.0175,-0.0104,-0.0142,0.0203,0.0204,0.0204,0.0204,0,-0.0779,-0.0715,-0.0649,-0.0538,-0.0481,-0.0402,-0.026,-0.0163,-0.0063,0.0024,0.0056,0.0173,0.0149,0.0177,0.0167,0.0292,0.0259,0.0279,0.0254,0.0253,0.0125,0.0135,-0.0062,-0.0123,0.021,0.021,0.0209,0,-0.0794,-0.071,-0.0713,-0.0652,-0.0564,-0.0506,-0.0383,-0.0251,-0.0193,-0.0112,-0.0029,0.0174,0.0114,0.0204,0.025,0.0283,0.0271,0.0284,0.0286,0.0197,0.0223,0.0153,0.0142,0.0257,0.0257,0.0256,0.0214,0,-0.0726,-0.0707,-0.07,-0.0625,-0.0565,-0.0554,-0.0467,-0.0396,-0.0333,-0.0263,-0.0136,-0.0009,0.0112,0.0194,0.0279,0.0331,0.0306,0.0326,0.0269,0.0317,0.0301,0.0297,0.0354,0.0355,0.0356,0.0356,0,0,-0.0744,-0.0709,-0.0695,-0.0662,-0.0625,-0.0617,-0.0576,-0.0501,-0.0395,-0.0337,-0.0324,-0.0065,0.0053,0.0192,0.0256,0.0329,0.03,0.0272,0.033,0.0327,0.0324,0.0308,0.0304,0.0358,0.0358,0.0358,0.0358,0,-0.0705,-0.0714,-0.071,-0.0675,-0.0665,-0.0604,-0.0617,-0.056,-0.0505,-0.0367,-0.0302,-0.0206,0.0017,0.0115,0.0198,0.0324,0.0279,0.0364,0.0337,0.0336,0.0332,0.0329,0.0312,0.0307,0.036,0.036,0.036,0,-0.0695,-0.0675,-0.0693,-0.065,-0.0623,-0.0571,-0.0585,-0.0592,-0.052,-0.0459,-0.0311,-0.0229,-0.0076,0.0068,0.0129,0.0114,0.024,0.0251,0.0252,0.0231,0.0228,0.0226,0.0224,0.0226,0.0225,0.0224,0,0,-0.0665,-0.0667,-0.0644,-0.0648,-0.0643,-0.0598,-0.0579,-0.0579,-0.0502,-0.0465,-0.0363,-0.025,-0.0118,-0.0064,0.0062,0.0177,0.0165,0.0226,0.0232,0.0237,0.0218,0.0217,0.0217,0.0219,0.0219,0.0218,0,0,-0.0652,-0.065,-0.0652,-0.0664,-0.0621,-0.0555,-0.0545,-0.0531,-0.0429,-0.0461,-0.0351,-0.0323,-0.0196,-0.0128,-0.0201,0.0031,0.0019,0.0036,-0.0051,-0.0042,-0.0035,-0.0093,-0.0196,0,0,0,0,0,-0.0643,-0.0655,-0.0658,-0.0661,-0.0618,-0.0559,-0.0543,-0.0514,-0.054,-0.0502,-0.0411,-0.0412,-0.0121,-0.0184,-0.0157,-0.0125,0.0155,0.0166,0.0177,0.0097,0.0106,0.0114,0,0,0,0,0,0,-0.0644,-0.0646,-0.0658,-0.0607,-0.0599,-0.0558,-0.056,-0.0547,-0.0542,-0.0539,-0.0424,-0.0407,-0.0334,-0.0196,-0.0172,-0.0143,-0.0204,0.0159,0.0169,0.0178,0.01,0.0107,0.0114,0,0,0,0,0,-0.0645,-0.0647,-0.0603,-0.0603,-0.0596,-0.0563,-0.056,-0.055,-0.0524,-0.0437,-0.0419,-0.0517,-0.0334,-0.031,-0.0181,-0.0155,-0.022,-0.0211,0.0166,0.0173,0.018,0.0104,0,0,0,0,0,0,-0.0646,-0.0583,-0.0598,-0.0593,-0.0631,-0.0561,-0.0553,-0.0552,-0.0418,-0.0406,-0.0524,-0.0523,-0.0333,-0.0315,-0.0297,-0.0162,-0.0233,-0.0224,-0.0219,0.0171,0.0177,0.0183,0,0,0,0,0,0,-0.0584,-0.0579,-0.0594,-0.0632,-0.0629,-0.0561,-0.0554,-0.0457,-0.0415,-0.0506,-0.0506,-0.0526,-0.0374,-0.0318,-0.0304,-0.015,-0.0244,-0.0235,-0.0229,-0.0225,0.0176,0.0181,0,0,0,0,0,0,-0.058,-0.0575,-0.0631,-0.0629,-0.0626,-0.0546,-0.0469,-0.0421,-0.0473,-0.0509,-0.0478,-0.0481,-0.0378,-0.0362,-0.0308,-0.0161,-0.0153,-0.0243,-0.0238,-0.0233,-0.0231,0,0,0,0,0,0,0,-0.0577,-0.0633,-0.0658,-0.0627,-0.0624,-0.0551,-0.0546,-0.0542,-0.0473,-0.0476,-0.0478,-0.048,-0.0293,-0.0283,-0.0274,-0.017,0,0,-0.0244,-0.024,0,0,0,0,0,0,0,0,-0.0633,-0.0633,-0.0658,-0.0659,-0.0659,-0.055,-0.0547,-0.0543,-0.0474,-0.0476,-0.0477,-0.0479,-0.029,-0.0282,-0.0275,0,0,0,0,0,0,0,0,0,0,0,0,0,0,0,-0.0658,-0.0659,0,-0.055,-0.0547,-0.0544,-0.0474,-0.0476,-0.0477,-0.0478,-0.0288,-0.0282,-0.0275,0,0,0,0,0,0,0,0,0,0,0,0,0,0,0,0,0,0,0,0,0,0,0,0,0,0,0,0,0,0,0,0,0,0,0,0,0,0,0,0,0,0,0,0,0,0,0,0,0,0,0,0,0,0,0,0,0,0,0,0,0,0,0,0,0,0,0,0,0]}],[{"header":{"parameterUnit":"kt","parameterCategory":2,"dx":1,"dy":1,"la1":30.253999710083008,"la2":30.299108505249023,"lo1":-89.0895004272461,"lo2":-89.04439544677734,"nx":28,"ny":28,"refTime":"2022-09-26T21:00:00:Z","depth":"2","parameterNumber":3,"parameterNumberName":"V-component_of_CURRENTS"},"data":[-0.0252,-0.0246,-0.0183,0.0057,0.0199,0.0294,0.0315,0.0325,0.0313,0.0282,0.0176,0.0232,0.0552,0.0757,0.1095,0.1215,0.1014,0.1225,0.1051,0.0747,0.07,0.0781,0.1001,0,0,0,0,0,-0.0122,-0.0096,0.0033,0.0187,0.0403,0.0465,0.0589,0.0599,0.0572,0.0514,0.044,0.0564,0.073,0.0791,0.1126,0.1345,0.1254,0.1242,0.1042,0.0998,0.0957,0.1123,0.1397,0.1397,0.1396,0.1396,0,0,0.0078,0.008,0.0229,0.0324,0.0473,0.0603,0.0631,0.0701,0.0738,0.0643,0.0655,0.0516,0.0656,0.0804,0.0908,0.1002,0.0965,0.0838,0.0811,0.0779,0.0947,0.109,0.1171,0.117,0.1168,0.1167,0.1166,0,0.0191,0.0287,0.0379,0.0495,0.0546,0.0677,0.0741,0.0769,0.0825,0.0806,0.0698,0.0641,0.0644,0.0682,0.0726,0.0684,0.047,0.0507,0.015,0.0454,0.0579,0.0583,0.0578,0.0537,0.0532,0.0528,0.0525,0.0523,0.0357,0.0381,0.0559,0.0602,0.0647,0.0706,0.0752,0.0819,0.0838,0.0774,0.0702,0.0622,0.0502,0.0409,0.0452,0.0411,0.0153,0.0371,0.0462,0.0277,0.0281,0.029,0.0301,0.0468,0.0475,0.0481,0.0485,0,0.0502,0.0575,0.0603,0.0734,0.0766,0.0777,0.0872,0.0878,0.0859,0.0783,0.074,0.0532,0.0465,0.0337,0.0166,0.0098,0.0059,0.0011,0.0177,0.0205,0.0246,0.0267,0.0159,0.0168,0.0176,0.0182,0.0187,0,0.0706,0.0684,0.0825,0.0813,0.0852,0.0886,0.0889,0.0901,0.0847,0.0819,0.0683,0.0522,0.0351,0.0222,0.0137,0.0099,-0.0089,0.013,0.0126,0.0213,0.025,-0.0047,-0.0025,-0.022,-0.0218,-0.0217,-0.0216,0,0.084,0.0868,0.0887,0.0884,0.0951,0.0949,0.0987,0.0981,0.1,0.0846,0.0789,0.0527,0.0407,0.0232,0.0207,0.0206,0.0043,0.0048,0.0138,0.0157,0.0221,0.0258,-0.0214,-0.0214,-0.0213,-0.0213,-0.0212,0,0.0957,0.106,0.0987,0.1079,0.1035,0.1002,0.1037,0.1031,0.0946,0.0898,0.0675,0.0584,0.0478,0.0424,0.0257,0.0303,0.0188,0.0215,0.0205,0.0488,0.0537,0.0473,0.0422,0.013,0.0133,0.0136,0.0139,0,0.1123,0.1123,0.1213,0.1127,0.1055,0.105,0.1087,0.1024,0.1003,0.0908,0.0792,0.0734,0.0673,0.0599,0.049,0.0563,0.0417,0.054,0.0291,0.0285,0.054,0.0481,0.0589,0.0455,0.0177,0.0173,0.017,0,0.1246,0.1324,0.13,0.1317,0.1252,0.1158,0.113,0.1073,0.1008,0.0881,0.0781,0.0833,0.0671,0.0683,0.064,0.0609,0.0488,0.0589,0.0584,0.0502,0.0202,0.0497,0.0499,0.0399,0.0394,0.0391,0.02,0,0.1536,0.151,0.1427,0.1419,0.1361,0.1174,0.1057,0.1028,0.0938,0.0867,0.0787,0.0785,0.0708,0.0763,0.0817,0.0722,0.0681,0.0681,0.0677,0.0614,0.0546,0.0522,0.082,0.0822,0.0822,0.0823,0,0,0.1657,0.1661,0.1633,0.1587,0.1465,0.127,0.1132,0.1095,0.0878,0.0854,0.0806,0.0749,0.0822,0.079,0.0798,0.0842,0.0746,0.0815,0.0671,0.0654,0.0638,0.0568,0.0544,0.0825,0.0825,0.0826,0.0826,0,0.1782,0.1774,0.1708,0.1636,0.137,0.1283,0.1197,0.0924,0.0879,0.0837,0.0756,0.0726,0.081,0.0809,0.0833,0.0848,0.0798,0.0843,0.0796,0.0682,0.0664,0.0648,0.0576,0.0554,0.0828,0.0828,0.0828,0,0.1912,0.1857,0.1758,0.1636,0.1453,0.1322,0.1165,0.0891,0.0828,0.0794,0.0753,0.0743,0.079,0.082,0.0828,0.0832,0.0814,0.0885,0.0881,0.088,0.0763,0.0743,0.0726,0.094,0.094,0.094,0,0,0.2015,0.1997,0.1711,0.159,0.1477,0.1236,0.1111,0.0944,0.0799,0.0779,0.0769,0.0741,0.0778,0.0779,0.0832,0.089,0.0848,0.0897,0.0891,0.0887,0.0883,0.0766,0.0748,0.094,0.094,0.094,0,0,0.1949,0.1697,0.1647,0.1497,0.1327,0.1038,0.0928,0.0819,0.0808,0.0702,0.0721,0.0723,0.0732,0.0771,0.0769,0.0822,0.0845,0.0849,0.0792,0.0786,0.0781,0.0758,0.079,0,0,0,0,0,0.1782,0.1732,0.1691,0.1613,0.1303,0.1094,0.1063,0.084,0.0705,0.076,0.0679,0.0698,0.0751,0.0751,0.0777,0.0778,0.0947,0.0945,0.0944,0.0886,0.0879,0.0874,0,0,0,0,0,0,0.1748,0.1674,0.1681,0.1383,0.1295,0.11,0.0936,0.0893,0.07,0.0682,0.0704,0.0703,0.0728,0.0743,0.0765,0.0764,0.0782,0.0946,0.0945,0.0944,0.0884,0.0878,0.0873,0,0,0,0,0,0.1719,0.1657,0.1218,0.1385,0.1312,0.0966,0.094,0.0899,0.0842,0.0738,0.0731,0.0635,0.0734,0.0747,0.0757,0.0752,0.0767,0.0775,0.0945,0.0945,0.0944,0.0881,0,0,0,0,0,0,0.1696,0.1784,0.12,0.1163,0.1308,0.098,0.0936,0.0907,0.0923,0.0887,0.0678,0.0665,0.0739,0.0748,0.0759,0.0743,0.0755,0.0763,0.0768,0.0945,0.0944,0.0944,0,0,0,0,0,0,0.1803,0.1763,0.1187,0.1106,0.1064,0.0993,0.0952,0.1056,0.0937,0.0892,0.0859,0.0672,0.0704,0.0751,0.0758,0.0933,0.0746,0.0754,0.0759,0.0762,0.0944,0.0944,0,0,0,0,0,0,0.1781,0.1745,0.1122,0.109,0.1055,0.0721,0.1098,0.0848,0.0684,0.0912,0.0665,0.0656,0.0708,0.0716,0.0759,0.0931,0.0932,0.0746,0.0751,0.0755,0.0758,0,0,0,0,0,0,0,0.1762,0.2068,0.1291,0.1077,0.1047,0.081,0.0812,0.0814,0.0682,0.0675,0.0667,0.066,0.0701,0.0709,0.0718,0.0929,0,0,0.0745,0.0749,0,0,0,0,0,0,0,0,0.2076,0.207,0.1289,0.1274,0.1261,0.081,0.0812,0.0814,0.0681,0.0675,0.0668,0.0663,0.0703,0.071,0.0717,0,0,0,0,0,0,0,0,0,0,0,0,0,0,0,0.1287,0.1275,0,0.0811,0.0812,0.0813,0.068,0.0675,0.067,0.0665,0.0705,0.0711,0.0716,0,0,0,0,0,0,0,0,0,0,0,0,0,0,0,0,0,0,0,0,0,0,0,0,0,0,0,0,0,0,0,0,0,0,0,0,0,0,0,0,0,0,0,0,0,0,0,0,0,0,0,0,0,0,0,0,0,0,0,0,0,0,0,0,0,0,0,0,0]}]],[[{"header":{"parameterUnit":"kt","parameterCategory":2,"dx":1,"dy":1,"la1":30.253999710083008,"la2":30.299108505249023,"lo1":-89.0895004272461,"lo2":-89.04439544677734,"nx":28,"ny":28,"refTime":"2022-09-26T21:00:00:Z","depth":"4","parameterNumber":2,"parameterNumberName":"U-component_of_CURRENTS"},"data":[-0.1236,-0.1327,-0.1498,-0.1367,-0.1412,-0.1325,-0.1428,-0.1564,-0.1476,-0.1608,-0.155,-0.1647,-0.1571,-0.1653,-0.1509,-0.152,-0.1953,-0.1634,-0.163,-0.2484,-0.2541,-0.2592,-0.2619,0,0,0,0,0,-0.1471,-0.1493,-0.1652,-0.1873,-0.1897,-0.1977,-0.2028,-0.22,-0.2269,-0.1834,-0.2159,-0.1765,-0.167,-0.1664,-0.1569,-0.1724,-0.2109,-0.1613,-0.2338,-0.2519,-0.2583,-0.2588,0,0,0,0,0,0,-0.1774,-0.1853,-0.213,-0.2363,-0.2411,-0.2342,-0.2591,-0.2358,-0.2437,-0.2529,-0.2214,-0.2179,-0.2216,-0.2133,-0.1967,-0.1975,-0.2081,-0.224,-0.2314,-0.2376,-0.2325,-0.2019,-0.1444,0,0,0,0,0,-0.1898,-0.2205,-0.2401,-0.2667,-0.281,-0.2885,-0.2977,-0.3039,-0.3055,-0.3331,-0.2919,-0.2903,-0.2515,-0.252,-0.2442,-0.2375,-0.3098,-0.2796,-0.2837,-0.317,-0.299,-0.2886,-0.2912,-0.2822,-0.2829,-0.2834,-0.2838,0,-0.2043,-0.2218,-0.269,-0.2801,-0.3003,-0.3346,-0.3355,-0.369,-0.3591,-0.3676,-0.3455,-0.3473,-0.3402,-0.2968,-0.3096,-0.3016,-0.2983,-0.2955,-0.3309,-0.3093,-0.297,-0.2981,-0.2989,-0.2888,-0.2884,-0.288,-0.2876,0,-0.208,-0.2306,-0.2516,-0.2857,-0.2986,-0.3216,-0.3497,-0.3514,-0.3946,-0.3931,-0.4095,-0.4173,-0.3951,-0.4014,-0.3964,-0.3857,-0.3681,-0.3461,-0.3828,-0.3709,-0.3087,-0.3075,-0.2972,-0.2953,-0.2937,-0.2924,-0.2913,0,-0.2098,-0.2207,-0.2549,-0.2671,-0.2903,-0.3002,-0.3302,-0.3459,-0.3759,-0.3736,-0.4173,-0.4139,-0.4496,-0.4374,-0.4351,-0.3986,-0.4267,-0.3814,-0.3676,-0.4217,-0.4199,-0.4116,-0.4084,-0.4412,-0.4415,-0.4417,-0.4418,0,-0.209,-0.2207,-0.2406,-0.2444,-0.2595,-0.2788,-0.2897,-0.3168,-0.3288,-0.3751,-0.3885,-0.4233,-0.4379,-0.4491,-0.4317,-0.4417,-0.4252,-0.4332,-0.3768,-0.3719,-0.4116,-0.4081,-0.4421,-0.4421,-0.4422,-0.4423,-0.4424,0,-0.2021,-0.2126,-0.2347,-0.2396,-0.2448,-0.2591,-0.2819,-0.2917,-0.3234,-0.3411,-0.3742,-0.3883,-0.418,-0.4171,-0.4283,-0.4299,-0.4234,-0.4163,-0.4151,-0.3616,-0.3348,-0.3562,-0.3804,-0.3802,-0.38,-0.3798,-0.3797,0,-0.1926,-0.2105,-0.2126,-0.2241,-0.2339,-0.2384,-0.2523,-0.2681,-0.284,-0.3091,-0.33,-0.3578,-0.3599,-0.3816,-0.3945,-0.3932,-0.4003,-0.3982,-0.3818,-0.3808,-0.3379,-0.3508,-0.4053,-0.3768,-0.3772,-0.3774,-0.3776,0,-0.1858,-0.2008,-0.2039,-0.2095,-0.2174,-0.2214,-0.2366,-0.2517,-0.2686,-0.2875,-0.3122,-0.3325,-0.3491,-0.3544,-0.3621,-0.3741,-0.3917,-0.3701,-0.3699,-0.3599,-0.402,-0.3521,-0.3487,-0.4013,-0.4021,-0.4027,-0.3757,0,-0.1815,-0.1904,-0.1947,-0.2057,-0.2106,-0.2166,-0.2258,-0.2378,-0.249,-0.2587,-0.2856,-0.2951,-0.3144,-0.3168,-0.3181,-0.3459,-0.3334,-0.3319,-0.326,-0.3452,-0.3276,-0.3294,-0.3011,-0.3005,-0.3001,-0.2997,0,0,-0.1708,-0.1808,-0.1871,-0.1937,-0.1979,-0.2026,-0.2107,-0.2182,-0.2303,-0.2412,-0.2423,-0.2691,-0.2718,-0.2934,-0.3028,-0.2984,-0.2967,-0.3069,-0.3315,-0.3351,-0.3384,-0.3234,-0.3256,-0.2989,-0.2987,-0.2985,-0.2984,0,-0.1672,-0.1748,-0.1851,-0.1885,-0.1974,-0.1987,-0.2026,-0.2118,-0.2204,-0.2338,-0.2374,-0.2523,-0.2618,-0.2699,-0.2735,-0.291,-0.2861,-0.2929,-0.317,-0.3271,-0.3313,-0.335,-0.3212,-0.3235,-0.2973,-0.2973,-0.2974,0,-0.163,-0.1664,-0.1735,-0.1801,-0.1859,-0.1921,-0.1926,-0.201,-0.2084,-0.2086,-0.2259,-0.2317,-0.2335,-0.2486,-0.2551,-0.2509,-0.2749,-0.2684,-0.2705,-0.2753,-0.2851,-0.2898,-0.294,-0.2416,-0.2415,-0.2414,0,0,-0.1599,-0.1682,-0.1737,-0.1796,-0.1842,-0.1896,-0.1937,-0.1977,-0.2034,-0.208,-0.2154,-0.2226,-0.2293,-0.2364,-0.2396,-0.2533,-0.2483,-0.2628,-0.2654,-0.2677,-0.2736,-0.2839,-0.2883,-0.2412,-0.2412,-0.2411,0,0,-0.1565,-0.1661,-0.1709,-0.1786,-0.1825,-0.1844,-0.191,-0.1942,-0.2032,-0.2086,-0.2107,-0.2125,-0.227,-0.2248,-0.221,-0.2427,-0.2299,-0.2309,-0.251,-0.2542,-0.2567,-0.2638,-0.2181,0,0,0,0,0,-0.1592,-0.1645,-0.169,-0.171,-0.1805,-0.1827,-0.184,-0.1901,-0.1953,-0.1987,-0.2067,-0.2065,-0.2228,-0.2195,-0.221,-0.2364,-0.2377,-0.2383,-0.2389,-0.2674,-0.2707,-0.2735,0,0,0,0,0,0,-0.1599,-0.1619,-0.1687,-0.1707,-0.173,-0.1825,-0.1844,-0.186,-0.195,-0.196,-0.205,-0.2064,-0.2069,-0.2188,-0.2201,-0.2349,-0.2176,-0.238,-0.2385,-0.2389,-0.2685,-0.2713,-0.2736,0,0,0,0,0,-0.1605,-0.1621,-0.1767,-0.1707,-0.1727,-0.1811,-0.1845,-0.1859,-0.1945,-0.1977,-0.1996,-0.1999,-0.2067,-0.2085,-0.2196,-0.2345,-0.2167,-0.2172,-0.2383,-0.2387,-0.2391,-0.2699,0,0,0,0,0,0,-0.1609,-0.1628,-0.1772,-0.178,-0.1717,-0.1809,-0.1826,-0.1857,-0.196,-0.1977,-0.1919,-0.1925,-0.2065,-0.2079,-0.2093,-0.2347,-0.2159,-0.2164,-0.2167,-0.2386,-0.2389,-0.2392,0,0,0,0,0,0,-0.162,-0.1634,-0.1776,-0.1785,-0.1794,-0.1806,-0.1822,-0.1871,-0.1961,-0.1896,-0.1904,-0.1921,-0.2057,-0.2075,-0.2086,-0.2158,-0.2153,-0.2158,-0.2161,-0.2164,-0.2389,-0.2391,0,0,0,0,0,0,-0.1627,-0.1639,-0.1783,-0.179,-0.1798,-0.189,-0.1851,-0.1955,-0.1949,-0.1891,-0.1953,-0.1955,-0.2053,-0.2064,-0.2081,-0.2148,-0.2155,-0.2153,-0.2157,-0.2159,-0.2161,0,0,0,0,0,0,0,-0.1632,-0.1537,-0.1728,-0.1795,-0.1802,-0.1854,-0.1856,-0.1858,-0.195,-0.1951,-0.1953,-0.1954,-0.2125,-0.213,-0.2136,-0.214,0,0,-0.2153,-0.2155,0,0,0,0,0,0,0,0,-0.1533,-0.1536,-0.1728,-0.173,-0.1732,-0.1854,-0.1856,-0.1857,-0.195,-0.1951,-0.1952,-0.1953,-0.2126,-0.2131,-0.2135,0,0,0,0,0,0,0,0,0,0,0,0,0,0,0,-0.1729,-0.173,0,-0.1854,-0.1856,-0.1857,-0.195,-0.1951,-0.1952,-0.1953,-0.2128,-0.2131,-0.2135,0,0,0,0,0,0,0,0,0,0,0,0,0,0,0,0,0,0,0,0,0,0,0,0,0,0,0,0,0,0,0,0,0,0,0,0,0,0,0,0,0,0,0,0,0,0,0,0,0,0,0,0,0,0,0,0,0,0,0,0,0,0,0,0,0,0,0,0,0]}],[{"header":{"parameterUnit":"kt","parameterCategory":2,"dx":1,"dy":1,"la1":30.253999710083008,"la2":30.299108505249023,"lo1":-89.0895004272461,"lo2":-89.04439544677734,"nx":28,"ny":28,"refTime":"2022-09-26T21:00:00:Z","depth":"4","parameterNumber":3,"parameterNumberName":"V-component_of_CURRENTS"},"data":[0.0121,-0.0068,-0.0268,-0.042,-0.0512,-0.0709,-0.0822,-0.0902,-0.0855,-0.0882,-0.0712,-0.0657,-0.0331,-0.0545,0.0005,0.0067,0.0659,0.0431,0.0439,0.1431,0.1471,0.1505,0.1104,0,0,0,0,0,0.006,-0.0075,-0.0332,-0.0578,-0.0801,-0.0837,-0.1068,-0.1154,-0.1186,-0.1083,-0.106,-0.0841,-0.0473,-0.0353,-0.0073,-0.0054,0.0711,0.0283,0.1128,0.1456,0.1499,0.1094,0,0,0,0,0,0,-0.0064,-0.0233,-0.0408,-0.0606,-0.0836,-0.0959,-0.1093,-0.1098,-0.114,-0.1069,-0.1057,-0.0818,-0.0651,-0.0272,0.0015,0.0317,0.0668,0.0999,0.1064,0.1109,0.0715,0.0288,0.0287,0,0,0,0,0,-0.0131,-0.0196,-0.0392,-0.0632,-0.0781,-0.0994,-0.1102,-0.1139,-0.1153,-0.1161,-0.1033,-0.0802,-0.0542,-0.0048,0.0179,0.071,0.1308,0.1301,0.1341,0.1637,0.1387,0.1427,0.1413,0.1664,0.1669,0.1673,0.1675,0,-0.0137,-0.0218,-0.0497,-0.0625,-0.0719,-0.0896,-0.0991,-0.1067,-0.1101,-0.1074,-0.1025,-0.0768,-0.0578,0.0016,0.0459,0.1102,0.1178,0.1404,0.1714,0.1452,0.1489,0.1463,0.1435,0.171,0.1707,0.1704,0.1702,0,-0.0157,-0.0253,-0.0431,-0.0639,-0.0707,-0.0822,-0.0968,-0.105,-0.1022,-0.1031,-0.0932,-0.0702,-0.0272,0.01,0.0857,0.1104,0.1547,0.1578,0.1549,0.1604,0.1522,0.148,0.1768,0.1755,0.1744,0.1735,0.1727,0,-0.0209,-0.0275,-0.0465,-0.0528,-0.0708,-0.0746,-0.0876,-0.0905,-0.0916,-0.0946,-0.0727,-0.0657,0.0024,0.0317,0.0818,0.1218,0.1487,0.1601,0.1664,0.1865,0.1826,0.1958,0.1924,0.2219,0.2216,0.2214,0.2211,0,-0.0194,-0.0335,-0.0441,-0.048,-0.0636,-0.0673,-0.0719,-0.076,-0.0797,-0.0712,-0.0684,-0.0365,-0.0128,0.0414,0.0859,0.0988,0.1495,0.1738,0.1611,0.158,0.1928,0.1899,0.2208,0.2207,0.2206,0.2205,0.2204,0,-0.0206,-0.0324,-0.0413,-0.0581,-0.0597,-0.0607,-0.0693,-0.0695,-0.068,-0.0645,-0.0534,-0.0385,-0.0056,0.0098,0.0765,0.0643,0.1011,0.1273,0.1297,0.0935,0.0921,0.1368,0.151,0.1504,0.1497,0.1491,0.1486,0,-0.0241,-0.0337,-0.0344,-0.0416,-0.049,-0.0468,-0.048,-0.0476,-0.046,-0.0451,-0.0302,-0.0212,-0.0045,0.0047,0.0303,0.0672,0.0897,0.0644,0.1279,0.1294,0.0903,0.0948,0.1007,0.1398,0.1409,0.1417,0.1423,0,-0.0225,-0.0334,-0.0306,-0.0375,-0.0351,-0.0373,-0.0356,-0.036,-0.0413,-0.0267,-0.0284,-0.0096,-0.0003,0.0062,0.018,0.0418,0.0759,0.0623,0.064,0.079,0.1359,0.0897,0.0905,0.0961,0.097,0.0977,0.1361,0,-0.0254,-0.0292,-0.0311,-0.0314,-0.0311,-0.0327,-0.0285,-0.0266,-0.0223,-0.019,-0.0122,0.0036,0.0135,0.0161,0.0266,0.0446,0.0519,0.0596,0.067,0.0709,0.0856,0.0904,0.0365,0.0366,0.0367,0.0368,0,0,-0.0206,-0.0259,-0.0251,-0.0262,-0.0268,-0.0223,-0.024,-0.02,-0.0117,-0.0116,-0.0031,0.011,0.0215,0.0273,0.0319,0.0339,0.0525,0.0383,0.0632,0.066,0.0687,0.0832,0.0876,0.037,0.0371,0.0371,0.0372,0,-0.0199,-0.0225,-0.025,-0.0242,-0.0224,-0.0198,-0.021,-0.0164,-0.0117,-0.006,0.0043,0.0124,0.0242,0.0329,0.0377,0.0355,0.0546,0.0376,0.0353,0.0633,0.0658,0.0683,0.0829,0.0868,0.0375,0.0374,0.0374,0,-0.0155,-0.0167,-0.0187,-0.0198,-0.0176,-0.0171,-0.0126,-0.0118,-0.01,0.0028,0.0106,0.0195,0.0297,0.0376,0.0413,0.0432,0.0595,0.0463,0.0457,0.0476,0.0771,0.0797,0.0821,0.0539,0.054,0.054,0,0,-0.0134,-0.017,-0.0157,-0.0193,-0.0187,-0.0149,-0.0138,-0.0092,-0.0026,0.0015,0.0119,0.0216,0.0295,0.0352,0.0437,0.0474,0.062,0.0481,0.0473,0.0467,0.0481,0.0771,0.0794,0.0541,0.0541,0.0541,0,0,-0.011,-0.0125,-0.0109,-0.0156,-0.0131,-0.0088,-0.0077,-0.0055,0.0032,0.0058,0.0182,0.0221,0.0304,0.0358,0.0362,0.0452,0.0485,0.0487,0.0424,0.0416,0.0408,0.0413,0.0467,0,0,0,0,0,-0.0094,-0.0139,-0.0127,-0.0132,-0.0129,-0.0119,-0.0109,-0.0024,-0.0005,0.0012,0.0123,0.0188,0.0406,0.0413,0.0433,0.0433,0.0556,0.0553,0.0551,0.0479,0.0469,0.0461,0,0,0,0,0,0,-0.0096,-0.0107,-0.0124,-0.0098,-0.0096,-0.0117,-0.0037,-0.0014,0.0,0.0018,0.0161,0.0192,0.0301,0.0408,0.0425,0.0424,0.0462,0.0555,0.0553,0.0551,0.0476,0.0468,0.0461,0,0,0,0,0,-0.0098,-0.0106,-0.0129,-0.0094,-0.0092,-0.0004,-0.0032,-0.0012,0.0011,0.0149,0.0181,0.0076,0.0296,0.0321,0.0419,0.0414,0.0451,0.0456,0.0553,0.0552,0.055,0.0472,0,0,0,0,0,0,-0.0099,-0.0069,-0.0125,-0.012,-0.0056,0.0004,0.0014,-0.0011,0.0146,0.0172,0.0071,0.0084,0.0291,0.0312,0.033,0.0406,0.0441,0.0448,0.0451,0.0552,0.0551,0.0549,0,0,0,0,0,0,-0.0064,-0.0066,-0.0122,-0.0079,-0.0067,0.001,0.0019,0.0065,0.015,0.0064,0.0076,0.0076,0.0291,0.0304,0.032,0.0386,0.0435,0.044,0.0444,0.0447,0.0551,0.055,0,0,0,0,0,0,-0.0063,-0.0064,-0.0079,-0.007,-0.0059,0.0012,0.006,0.0081,0.0116,0.0058,0.0128,0.0134,0.0283,0.0299,0.0312,0.037,0.0382,0.0435,0.0439,0.0442,0.0443,0,0,0,0,0,0,0,-0.0061,-0.0085,-0.0164,-0.0063,-0.0053,-0.0073,-0.0071,-0.0069,0.0117,0.0122,0.0127,0.0132,0.0402,0.0408,0.0414,0.0357,0,0,0.0434,0.0437,0,0,0,0,0,0,0,0,-0.0081,-0.0084,-0.0164,-0.0164,-0.0163,-0.0073,-0.0071,-0.0069,0.0118,0.0122,0.0126,0.013,0.0403,0.0408,0.0414,0,0,0,0,0,0,0,0,0,0,0,0,0,0,0,-0.0164,-0.0164,0,-0.0073,-0.0071,-0.007,0.0119,0.0122,0.0125,0.0128,0.0405,0.0409,0.0413,0,0,0,0,0,0,0,0,0,0,0,0,0,0,0,0,0,0,0,0,0,0,0,0,0,0,0,0,0,0,0,0,0,0,0,0,0,0,0,0,0,0,0,0,0,0,0,0,0,0,0,0,0,0,0,0,0,0,0,0,0,0,0,0,0,0,0,0,0]}]]]